Powrót do katalogu

SL-14 DEB

AktywnyPO
NORAD 47079·DEBRIS·🇷🇺 Russia

Wystrzelony Aug 15, 1991 z Plesetsk Cosmodrome

Loading…

Następne Przeloty (najbliższe 24 godziny)

TLE

NieaktualneSource: Space-Track

Epoka: Aug 31, 2026, 19:26 UTC

1 47079U 91056DD  26243.81015697  .00000344  00000-0  76452-3 0  9990
2 47079  82.5416  64.9536 0033246 167.5020 192.6939 13.24910868281740

Śledź SL-14 DEB w czasie rzeczywistym z AllMySat

Download on the App Store